Powrót do katalogu

STARLINK-4810

AktywnyŁącznośćVLEO
NORAD 53869·PAYLOAD·🇺🇸 United States

Wystrzelony Sep 19, 2022 z Cape Canaveral Space Force Station

Loading…

Następne Przeloty (najbliższe 24 godziny)

TLE

ŚwieżeSource: CelesTrak SupGP

Epoka: Sep 15, 2026, 01:36 UTC

1 53869C 22114BD  26258.06715278  .00043008  00000+0  13832-2 0  2581
2 53869  53.1565 131.3329 0001219  84.3612 253.3453 15.31676208    12

Śledź STARLINK-4810 w czasie rzeczywistym z AllMySat

Download on the App Store